Location: Unspecified
(42.3650°N, 71.1030°W)
Time: 20:52:53
(UTC+00:00)

Explorer 11/Cluster Stage 4 - Pass Details

Date: 27 June 2024
Orbit: 465 x 1215 km, 28.8° (Epoch: 13 July)

Event Time Altitude Azimuth Distance (km) Brightness Sun altitude
Rises 22:04:22 0° 216° (SW) 3,688 10.4 23.2°
Reaches altitude 10° 22:07:48 10° 199° (SSW) 2,868 9.6 22.6°
Maximum altitude 22:12:29 19° 158° (SSE) 2,426 8.9 21.7°
Drops below altitude 10° 22:17:30 10° 118° (ESE) 3,111 9.1 20.8°
Sets 22:21:25 0° 102° (ESE) 4,117 9.6 20.1°
